Saginaw, MI

7:48 PM EDT on March 25, 2017 (GMT -0400)
MBS International

Weather History for KMBS - July, 2012

Change the Weather History Date:

Tuesday, July 3, 2012

  Actual Average Record
Temperature  
Mean Temperature 79 °F 71 °F  
Max Temperature 90 °F 82 °F 93 °F (2002)
Min Temperature 68 °F 60 °F 50 °F (2015)
Degree Days  
Heating Degree Days 0    
Month to date heating degree days  
Since 1 June heating degree days  
Since 1 July heating degree days  
Cooling Degree Days 14    
Month to date cooling degree days  
Year to date cooling degree days  
Since 1 June cooling degree days  
Growing Degree Days 29 (Base 50)    
Moisture  
Dew Point 66 °F    
Average Humidity 74    
Maximum Humidity 90    
Minimum Humidity 46    
Precipitation  
Precipitation 0.93 in 0.09 in 0.93 in (2012)
Month to date precipitation 0.27  
Year to date precipitation 14.90  
Snow  
Snow 0.00 in - - ()
Month to date snowfall  
Since 1 June snowfall  
Since 1 July snowfall  
Snow Depth -    
Sea Level Pressure  
Sea Level Pressure 29.87 in    
Wind  
Wind Speed 9 mph (WSW)    
Max Wind Speed 23 mph    
Max Gust Speed 31 mph    
Visibility 8 miles    
Events Rain , Thunderstorm    
T = Trace of Precipitation, MM = Missing Value Source: NWS Daily Summary

Daily Weather History Graph

Daily Weather History Graph

Search for Another Location

Airport or City:

Trip Planner

Search our weather history database for the weather conditions in past years. The results will help you decide how hot, cold, wet, or windy it might be!

Date:

Astronomy

Jul. 03, 2012 Rise Set
Actual Time 6:00 AM EDT 9:20 PM EDT
Civil Twilight 5:24 AM EDT 9:56 PM EDT
Nautical Twilight 4:38 AM EDT 10:42 PM EDT
Astronomical Twilight 3:41 AM EDT 11:39 PM EDT
Moon 9:12 PM EDT (7/3) 5:53 AM EDT (7/3)
Length of Visible Light 16h 31m
Length of Day
15h 20m
Full, 100% of the Moon is Illuminated
Jul 3
Full
Jul 3
Full
Jul 10
Last Quarter
Jul 19
New
Jul 26
First Quarter

Hourly Weather History & Observations

Time (EDT) Temp. Heat Index Dew Point Humidity Pressure Visibility Wind Dir Wind Speed Gust Speed Precip Events Conditions
12:53 AM 75.9 °F - 60.1 °F 58% 29.91 in 10.0 mi SE 6.9 mph - N/A   Clear
1:53 AM 75.9 °F - 61.0 °F 60% 29.89 in 10.0 mi South 5.8 mph - N/A   Clear
2:53 AM 73.0 °F - 63.0 °F 71% 29.88 in 10.0 mi ESE 4.6 mph - N/A   Clear
3:53 AM 73.9 °F - 64.0 °F 71% 29.88 in 10.0 mi SSW 5.8 mph - N/A   Clear
4:53 AM 75.0 °F - 64.0 °F 69% 29.91 in 10.0 mi WSW 16.1 mph 20.7 mph N/A   Mostly Cloudy
5:06 AM 75.2 °F - 62.6 °F 65% 29.91 in 10.0 mi West 15.0 mph 25.3 mph N/A   Scattered Clouds
5:53 AM 72.0 °F - 66.0 °F 81% 29.92 in 3.0 mi WSW 12.7 mph - 0.00 in Rain Light Rain
6:00 AM 71.6 °F - 66.2 °F 83% 29.92 in 3.0 mi West 20.7 mph 27.6 mph 0.01 in Rain , Thunderstorm Light Thunderstorms and Rain
7:05 AM 71.6 °F - 64.4 °F 78% 29.93 in 1.8 mi NW 9.2 mph - 0.23 in Rain , Thunderstorm Heavy Thunderstorms and Rain
7:09 AM 69.8 °F - 64.4 °F 83% 29.91 in 0.8 mi Calm Calm - N/A Rain , Thunderstorm Heavy Thunderstorms and Rain
7:16 AM 69.8 °F - 64.4 °F 83% 29.89 in 1.2 mi Calm Calm - 0.49 in Rain , Thunderstorm Light Thunderstorms and Rain
7:19 AM 69.8 °F - 64.4 °F 83% 29.87 in 3.0 mi Variable 5.8 mph - 0.49 in Rain , Thunderstorm Light Thunderstorms and Rain
7:53 AM 71.1 °F - 66.0 °F 84% 29.92 in 10.0 mi NNW 23.0 mph 28.8 mph 0.49 in Thunderstorm Thunderstorm
8:18 AM 68.0 °F - 64.4 °F 88% 29.93 in 1.8 mi North 15.0 mph 31.1 mph 0.15 in Rain , Thunderstorm Heavy Thunderstorms and Rain
8:25 AM 68.0 °F - 64.4 °F 88% 29.93 in 2.0 mi North 12.7 mph - 0.20 in Rain , Thunderstorm Heavy Thunderstorms and Rain
8:28 AM 69.8 °F - 64.4 °F 83% 29.96 in 3.0 mi NW 17.3 mph 21.9 mph 0.22 in Rain , Thunderstorm Thunderstorms and Rain
8:36 AM 68.0 °F - 64.4 °F 88% 29.95 in 1.8 mi NW 15.0 mph - 0.38 in Rain , Thunderstorm Heavy Thunderstorms and Rain
8:45 AM 68.0 °F - 64.4 °F 88% 29.92 in 3.0 mi North 8.1 mph - 0.43 in Rain , Thunderstorm Thunderstorms and Rain
8:53 AM 68.0 °F - 64.9 °F 90% 29.91 in 10.0 mi North 10.4 mph - 0.43 in Rain , Thunderstorm Light Thunderstorms and Rain
9:14 AM 69.8 °F - 64.4 °F 83% 29.90 in 10.0 mi Calm Calm - 0.01 in Rain Light Rain
9:53 AM 70.0 °F - 66.0 °F 87% 29.88 in 10.0 mi South 8.1 mph - 0.01 in   Partly Cloudy
10:53 AM 73.0 °F - 68.0 °F 84% 29.88 in 10.0 mi South 12.7 mph - N/A   Scattered Clouds
11:53 AM 75.0 °F - 68.0 °F 79% 29.87 in 10.0 mi South 10.4 mph 21.9 mph N/A   Mostly Cloudy
12:53 PM 75.0 °F - 69.1 °F 82% 29.85 in 10.0 mi South 9.2 mph - N/A   Partly Cloudy
1:53 PM 80.1 °F 82.9 °F 69.1 °F 69% 29.83 in 10.0 mi South 11.5 mph - N/A   Clear
2:53 PM 82.0 °F 86.3 °F 71.1 °F 69% 29.82 in 10.0 mi SSW 8.1 mph - N/A   Clear
3:53 PM 87.1 °F 94.5 °F 73.0 °F 63% 29.83 in 10.0 mi WSW 12.7 mph - N/A   Clear
4:53 PM 89.1 °F 93.7 °F 69.1 °F 52% 29.81 in 10.0 mi WNW 12.7 mph - N/A   Clear
5:53 PM 90.0 °F 92.8 °F 66.9 °F 46% 29.79 in 10.0 mi West 15.0 mph - N/A   Clear
6:53 PM 89.1 °F 91.3 °F 66.0 °F 46% 29.79 in 10.0 mi West 11.5 mph - N/A   Clear
7:53 PM 87.1 °F 88.9 °F 64.9 °F 48% 29.79 in 10.0 mi WNW 6.9 mph - N/A   Clear
8:53 PM 84.9 °F 87.6 °F 66.9 °F 55% 29.80 in 10.0 mi SW 3.5 mph - N/A   Clear
9:53 PM 81.0 °F 84.9 °F 71.1 °F 72% 29.80 in 10.0 mi WSW 4.6 mph - N/A   Clear
10:53 PM 78.1 °F - 70.0 °F 76% 29.81 in 10.0 mi SW 4.6 mph - N/A   Clear
11:53 PM 78.1 °F - 69.1 °F 74% 29.81 in 10.0 mi SSW 4.6 mph - N/A   Clear